Stations météo

Publicité
Creil Fafb, France (7057): Température de l'air & dewpoint: 14.09.2019 05:00:00 - 20.09.2019 05:00:00 (CEST)Creil Fafb, France (7057): Température de l'air 5cm: 14.09.2019 05:00:00 - 20.09.2019 05:00:00 (CEST)Creil Fafb, France (7057): Température de l'air -20cm & Température de l'air -100cm: 14.09.2019 05:00:00 - 20.09.2019 05:00:00 (CEST)Creil Fafb, France (7057): Vitesse du vent & gusts: 14.09.2019 05:00:00 - 20.09.2019 05:00:00 (CEST)Creil Fafb, France (7057): Direction du vent: 14.09.2019 05:00:00 - 20.09.2019 05:00:00 (CEST)Creil Fafb, France (7057): reduced air pressure: 14.09.2019 05:00:00 - 20.09.2019 05:00:00 (CEST)Creil Fafb, France (7057): visibility: 14.09.2019 05:00:00 - 20.09.2019 05:00:00 (CEST)Creil Fafb, France (7057): Ensoleillement: 14.09.2019 05:00:00 - 20.09.2019 05:00:00 (CEST)Creil Fafb, France (7057): Quantités de précipitations: 14.09.2019 05:00:00 - 20.09.2019 05:00:00 (CEST)
Date & Time tt [°C] td [°C] tt 5cm [°C] tt -20cm [°C] tt -100cm [°C] ff [km/h] ff [knt] fx [km/h] fx [knt] dd ppp [hPa] vv [km] sd [min] rr [mm]
20.09.2019 05:00:00 6,7 4,4 2,3 16,5 15,9 13 7 20 11 NNE 1027,2 20 0 0,0
20.09.2019 04:00:00 6,4 4,2 2,6 16,6 15,9 12 6 16 9 NNE 1027,7 20 0 0,0
20.09.2019 03:00:00 7,9 4,8 2,9 16,6 15,9 11 6 20 11 NE 1027,9 20 0 0,0
20.09.2019 02:00:00 7,2 5,0 2,5 16,7 15,9 12 7 16 8 NE 1028,3 16 0 0,0
20.09.2019 01:00:00 9,8 5,6 2,5 16,8 16,0 4 2 15 8 NNE 1028,3 20 0 0,0
20.09.2019 00:00:00 10,7 5,7 5,4 16,8 15,9 10 6 21 11 NE 1028,4 20 0 0,0
19.09.2019 23:00:00 12,0 6,1 4,9 16,8 16,0 13 7 22 12 NE 1028,6 20 0 0,0
19.09.2019 22:00:00 12,1 5,7 6,5 16,8 15,9 10 5 18 10 NE 1028,4 20 0 0,0
19.09.2019 21:00:00 12,9 5,6 6,9 16,7 16,0 8 4 22 12 NNE 1028,1 20 0 0,0
19.09.2019 20:00:00 15,7 5,0 12,9 16,6 15,9 15 8 31 17 NE 1027,6 20 31 0,0
19.09.2019 19:00:00 17,7 4,6 17,1 16,5 16,0 18 10 35 19 NE 1027,3 20 60 0,0
19.09.2019 18:00:00 18,7 2,9 20,9 16,3 16,0 22 12 38 21 ENE 1027,3 20 60 0,0
19.09.2019 17:00:00 19,1 3,7 25,2 16,3 16,0 21 12 39 21 NE 1027,5 20 60 0,0
19.09.2019 16:00:00 19,0 4,3 27,1 16,2 16,0 20 11 38 21 NE 1027,9 20 60 0,0
19.09.2019 15:00:00 18,4 4,5 31,2 16,2 16,0 21 12 39 21 NE 1028,5 20 60 0,0
19.09.2019 14:00:00 18,0 4,5 34,9 16,2 16,0 17 9 36 20 ENE 1028,9 20 60 0,0
19.09.2019 13:00:00 17,6 4,5 32,1 16,2 16,0 22 12 38 21 NE 1029,3 20 60 0,0
19.09.2019 12:00:00 16,9 5,2 24,9 16,3 16,0 22 12 37 20 NE 1029,7 20 60 0,0
19.09.2019 11:00:00 14,7 6,0 15,9 16,4 16,0 22 12 39 21 NE 1029,9 20 60 0,0
19.09.2019 10:00:00 11,8 7,1 8,8 16,5 16,1 14 8 23 12 NNE 1029,7 20 60 0,0
19.09.2019 09:00:00 9,3 6,9 2,9 16,6 16,1 12 7 18 10 NNE 1029,4 20 60 0,0
19.09.2019 08:00:00 6,8 5,9 1,2 16,6 16,0 10 6 15 8 NNE 1029,0 20 6 0,0
19.09.2019 07:00:00 7,0 5,5 1,7 16,7 16,0 9 5 17 9 NNE 1028,6 20 0 0,0
19.09.2019 06:00:00 7,3 5,8 2,4 16,9 16,1 11 6 18 10 NNE 1028,4 20 0 0,0
19.09.2019 05:00:00 7,6 6,1 1,9 16,9 16,1 10 6 16 9 N 1028,4 20 0 0,0
19.09.2019 04:00:00 8,2 5,7 3,1 17,0 16,1 7 4 16 9 NNE 1028,5 20 0 0,0
19.09.2019 03:00:00 9,1 6,2 4,6 17,1 16,1 12 7 18 10 NNE 1028,4 20 0 0,0
19.09.2019 02:00:00 10,1 6,4 5,8 17,1 16,0 13 7 21 11 NNE 1028,6 20 0 0,0
19.09.2019 01:00:00 10,4 6,5 5,5 17,2 16,1 12 7 17 9 NNE 1028,3 20 0 0,0
19.09.2019 00:00:00 10,5 6,1 5,1 17,2 16,1 10 6 19 10 NNE 1028,0 20 0 0,0
18.09.2019 23:00:00 12,0 5,4 6,0 17,2 16,1 12 7 21 11 NNE 1027,6 20 0 0,0
18.09.2019 22:00:00 12,3 4,8 6,8 17,2 16,1 9 5 21 11 NNE 1027,1 20 0 0,0
18.09.2019 21:00:00 14,3 4,6 9,5 17,2 16,0 13 7 22 12 NNE 1026,4 20 0 0,0
18.09.2019 20:00:00 15,3 4,0 11,2 17,1 16,1 14 7 30 16 NNE 1026,1 20 33 0,0
18.09.2019 19:00:00 17,7 4,3 17,1 17,0 16,1 16 9 36 19 NE 1025,6 20 60 0,0
18.09.2019 18:00:00 18,6 4,0 21,1 16,9 16,1 21 11 38 21 NNE 1025,6 20 60 0,0
18.09.2019 17:00:00 19,2 4,1 25,6 16,8 16,0 21 11 38 21 NNE 1025,5 20 60 0,0
18.09.2019 16:00:00 19,2 4,1 27,4 16,7 16,1 24 13 35 19 NE 1025,8 20 60 0,0
18.09.2019 15:00:00 19,0 4,7 33,0 16,7 16,1 22 12 37 20 NE 1026,3 20 60 0,0
18.09.2019 14:00:00 17,9 4,5 30,2 16,8 16,1 21 11 40 22 ENE 1026,5 20 54 0,0
18.09.2019 13:00:00 16,6 4,9 29,5 16,8 16,1 21 11 40 22 NE 1026,8 20 47 0,0
18.09.2019 12:00:00 16,2 5,2 25,3 16,8 16,1 20 11 36 19 NNE 1027,2 20 60 0,0
18.09.2019 11:00:00 14,6 5,9 15,8 16,9 16,1 16 9 29 16 NE 1027,5 20 42 0,0
18.09.2019 10:00:00 12,2 6,7 8,6 17,1 16,1 12 7 21 12 NNE 1027,3 20 60 0,0
18.09.2019 09:00:00 9,0 6,1 2,3 17,2 16,1 10 5 16 9 NNE 1027,0 20 36 0,0
18.09.2019 08:00:00 6,0 5,0 1,3 17,3 16,1 10 5 15 8 NNE 1026,4 18 7 0,0
18.09.2019 07:00:00 6,1 4,7 1,2 17,4 16,1 9 5 16 9 NNE 1026,2 19 0 0,0
18.09.2019 06:00:00 6,9 5,2 1,9 17,5 16,1 9 5 16 9 NNE 1026,0 20 0 0,0
18.09.2019 05:00:00 7,8 5,8 3,1 17,6 16,1 11 6 16 8 NNE 1026,0 19 0 0,0
18.09.2019 04:00:00 8,4 6,0 2,8 17,7 16,1 12 6 16 8 NNE 1025,7 20 0 0,0
18.09.2019 03:00:00 8,9 6,2 4,2 17,8 16,1 9 5 16 9 NE 1025,6 18 0 0,0
18.09.2019 02:00:00 10,0 6,5 5,8 17,8 16,0 8 5 21 12 NNE 1025,6 20 0 0,0
18.09.2019 01:00:00 11,6 6,9 8,2 17,9 16,1 14 8 25 13 NNE 1025,2 20 0 0,0
18.09.2019 00:00:00 12,2 7,5 8,3 17,9 16,0 13 7 23 12 NNE 1024,9 20 0 0,0
17.09.2019 23:00:00 13,0 7,7 9,4 17,9 16,0 14 7 22 12 NNE 1024,5 20 0 0,0
17.09.2019 22:00:00 14,3 8,0 10,9 17,9 16,0 15 8 30 16 NNE 1024,1 20 0 0,0
17.09.2019 21:00:00 15,8 8,5 12,1 17,8 16,0 16 8 29 16 NNE 1023,3 20 0 0,0
17.09.2019 20:00:00 17,1 8,5 13,2 17,7 16,0 11 6 22 12 NNE 1022,5 20 36 0,0
17.09.2019 19:00:00 19,5 8,8 19,1 17,7 16,1 13 7 29 16 NNE 1022,2 20 49 0,0
17.09.2019 18:00:00 20,7 8,7 23,6 17,5 16,0 18 10 29 16 NNE 1022,0 20 60 0,0
17.09.2019 17:00:00 21,5 8,7 29,2 17,4 16,0 15 8 27 15 NNE 1021,9 20 60 0,0
17.09.2019 16:00:00 21,5 8,7 30,6 17,3 16,0 15 8 39 21 N 1022,3 20 56 0,0
17.09.2019 15:00:00 20,8 9,1 27,9 17,3 16,0 18 10 29 16 N 1022,3 20 32 0,0
17.09.2019 14:00:00 21,0 9,9 25,2 17,3 16,0 11 6 23 13 N 1022,7 20 25 0,0
17.09.2019 13:00:00 20,3 10,1 23,5 17,3 16,0 14 7 26 14 NNE 1022,8 20 28 0,0
17.09.2019 12:00:00 18,7 11,5 24,3 17,3 16,0 12 6 20 11 NNE 1023,2 20 17 0,0
17.09.2019 11:00:00 17,9 13,0 19,2 17,3 16,0 10 5 16 9 NE 1023,0 20 0 0,0
17.09.2019 10:00:00 16,3 13,6 16,9 17,3 16,0 7 4 19 10 NNE 1022,7 11 0 0,0
17.09.2019 09:00:00 16,0 14,0 15,8 17,3 16,0 10 6 17 9 NNE 1022,4 5 0 0,0
17.09.2019 08:00:00 15,9 14,4 14,9 17,3 16,0 11 6 16 9 N 1022,0 3,5 0 0,0
17.09.2019 07:00:00 16,2 14,7 15,1 17,4 16,0 8 4 16 9 NNE 1021,5 8 0 0,0
17.09.2019 06:00:00 16,3 14,8 15,0 17,4 16,0 9 5 15 8 N 1021,5 12 0 0,0
17.09.2019 05:00:00 16,1 14,8 15,0 17,4 16,0 4 2 7 4 NNW 1021,3 13 0 0,0
17.09.2019 04:00:00 16,0 14,9 15,2 17,4 16,0 2 1 4 2 NNW 1021,3 15 0 0,0
17.09.2019 03:00:00 15,9 14,6 15,0 17,5 16,0 0 0 6 3 N 1021,5 13 0 0,0
17.09.2019 02:00:00 16,0 14,7 12,2 17,5 16,0 3 2 8 4 NNW 1021,7 13 0 0,0
17.09.2019 01:00:00 16,0 14,5 13,9 17,5 16,0 0 0 12 7 N 1021,8 15 0 0,0
17.09.2019 00:00:00 16,2 14,4 14,1 17,5 16,0 5 3 20 11 NNW 1021,7 19 0 0,0
16.09.2019 23:00:00 16,7 14,7 13,7 17,4 16,0 10 6 15 8 N 1021,5 19 0 0,0
16.09.2019 22:00:00 17,6 14,7 15,3 17,4 16,0 11 6 25 14 N 1021,2 20 0 0,0
16.09.2019 21:00:00 19,2 14,7 17,0 17,3 16,0 11 6 26 14 N 1020,9 20 0 0,0
16.09.2019 20:00:00 20,7 14,1 19,0 17,2 16,0 15 8 25 14 N 1020,3 20 18 0,0
16.09.2019 19:00:00 22,7 15,3 22,9 17,0 16,0 16 9 29 16 N 1019,9 20 45 0,0
16.09.2019 18:00:00 25,1 15,4 27,7 16,9 16,0 15 8 22 12 N 1019,3 20 44 0,0
16.09.2019 17:00:00 26,4 13,8 31,5 16,8 16,0 11 6 22 12 WNW 1019,6 20 51 0,0
16.09.2019 16:00:00 26,9 13,6 33,6 16,8 16,0 14 7 30 16 W 1019,9 20 60 0,0
16.09.2019 15:00:00 26,0 14,1 37,9 16,7 16,0 10 5 21 12 W 1020,3 20 60 0,0
16.09.2019 14:00:00 25,0 14,5 36,8 16,7 16,0 7 4 19 11 NW 1020,9 20 52 0,0
16.09.2019 13:00:00 24,1 13,6 35,7 16,7 16,0 11 6 19 10 NW 1021,2 20 60 0,0
16.09.2019 12:00:00 22,4 10,2 27,1 16,8 16,0 8 4 16 8 NW 1021,7 20 57 0,0
16.09.2019 11:00:00 19,6 8,3 19,7 16,8 16,0 6 3 12 6 WNW 1022,1 20 50 0,0
16.09.2019 10:00:00 15,7 10,2 13,8 16,9 16,0 4 2 9 5 WNW 1022,2 20 42 0,0
16.09.2019 09:00:00 11,5 10,9 8,7 17,0 16,0 2 1 4 2 S 1022,0 14 0 0,0
16.09.2019 08:00:00 9,8 9,5 5,5 17,1 16,0 0 0 6 3 N 1022,0 19 0 0,0
16.09.2019 07:00:00 9,8 9,2 4,8 17,1 16,0 3 1 4 2 SSW 1021,8 20 0 0,0
16.09.2019 06:00:00 8,7 7,8 4,6 17,2 16,0 2 1 4 2 NNE 1021,9 20 0 0,0
16.09.2019 05:00:00 10,3 9,7 5,2 17,3 16,0 0 0 4 2 N 1022,1 20 0 0,0
16.09.2019 04:00:00 11,0 10,2 5,6 17,4 15,9 0 0 4 2 N 1022,5 20 0 0,0
16.09.2019 03:00:00 11,6 10,8 5,7 17,4 15,9 3 2 5 3 S 1022,8 20 0 0,0
16.09.2019 02:00:00 11,4 9,3 6,4 17,5 16,0 0 0 3 2 N 1023,1 20 0 0,0
16.09.2019 01:00:00 13,0 11,6 6,9 17,5 15,9 0 0 5 3 N 1023,0 20 0 0,0
16.09.2019 00:00:00 14,0 11,9 7,5 17,5 15,9 0 0 6 4 N 1023,3 20 0 0,0
15.09.2019 23:00:00 15,4 11,8 8,4 17,5 15,9 5 3 12 7 E 1023,2 20 0 0,0
15.09.2019 22:00:00 16,3 11,7 9,4 17,4 15,9 6 3 14 8 NNE 1023,0 20 0 0,0
15.09.2019 21:00:00 19,3 11,8 11,0 17,4 16,0 4 2 8 4 ENE 1022,7 20 0 0,0
15.09.2019 20:00:00 21,8 11,5 14,9 17,2 15,9 4 2 11 6 ENE 1022,1 20 40 0,0
15.09.2019 19:00:00 25,5 10,9 24,5 17,1 15,9 6 3 11 6 NE 1021,8 20 60 0,0
15.09.2019 18:00:00 27,2 10,8 30,3 17,0 16,0 5 3 15 8 NNE 1021,9 20 60 0,0
15.09.2019 17:00:00 26,8 10,5 33,1 16,8 16,0 6 3 14 7 NNW 1022,3 20 60 0,0
15.09.2019 16:00:00 27,5 11,1 35,1 16,7 16,0 5 3 16 9 N 1022,9 20 60 0,0
15.09.2019 15:00:00 26,2 10,8 38,5 16,6 15,9 10 5 20 11 NNW 1023,8 20 60 0,0
15.09.2019 14:00:00 25,1 11,3 44,2 16,7 16,0 5 3 17 9 WNW 1024,6 20 60 0,0
15.09.2019 13:00:00 23,8 11,1 36,9 16,6 15,9 10 6 16 9 NNW 1025,2 20 60 0,0
15.09.2019 12:00:00 23,2 10,9 29,2 16,7 15,9 5 3 11 6 N 1025,3 20 60 0,0
15.09.2019 11:00:00 20,4 11,1 18,6 16,8 16,0 3 2 9 5 N 1025,7 20 60 0,0
15.09.2019 10:00:00 16,3 10,4 11,1 16,9 16,0 3 2 6 4 N 1025,8 20 60 0,0
15.09.2019 09:00:00 11,3 10,5 5,1 17,0 16,0 0 0 3 2 N 1025,7 18 60 0,0
15.09.2019 08:00:00 9,3 9,2 3,7 17,1 15,9 4 2 4 2 E 1025,7 20 11 0,0
15.09.2019 07:00:00 8,1 7,5 3,7 17,2 16,0 0 0 5 3 N 1025,8 20 0 0,0
15.09.2019 06:00:00 8,4 7,8 4,0 17,3 16,0 2 1 4 2 E 1025,7 9 0 0,2
15.09.2019 05:00:00 9,5 8,7 4,6 17,4 15,9 0 0 2 1 N 1025,9 19 0 0,0
15.09.2019 04:00:00 9,9 8,7 5,0 17,5 15,9 0 0 4 2 N 1026,3 20 0 0,0
15.09.2019 03:00:00 10,2 8,8 5,3 17,5 15,9 0 0 3 2 N 1026,6 20 0 0,0
15.09.2019 02:00:00 10,8 8,7 5,9 17,6 15,9 0 0 3 2 N 1026,9 20 0 0,0
15.09.2019 01:00:00 12,0 9,6 6,5 17,7 16,0 0 0 2 1 N 1027,1 20 0 0,0
15.09.2019 00:00:00 12,5 10,4 6,8 17,6 15,9 0 0 5 3 N 1027,6 20 0 0,0
14.09.2019 23:00:00 14,1 11,1 7,6 17,6 15,9 0 0 4 2 N 1027,5 20 0 0,0
14.09.2019 22:00:00 15,7 11,7 8,9 17,5 15,9 4 2 6 3 E 1027,6 20 0 0,0
14.09.2019 21:00:00 18,0 11,8 10,5 17,4 15,9 5 3 10 5 E 1027,7 20 0 0,0
14.09.2019 20:00:00 20,1 11,6 14,5 17,3 15,9 6 4 16 9 NNE 1027,5 20 42 0,0
14.09.2019 19:00:00 23,4 11,8 22,9 17,2 15,9 12 7 22 12 NE 1027,3 20 60 0,0
14.09.2019 18:00:00 24,5 12,1 27,7 17,0 15,9 16 9 27 14 NNE 1027,5 20 60 0,0
14.09.2019 17:00:00 25,0 11,9 31,6 16,9 15,9 14 8 24 13 ENE 1028,0 20 60 0,0
14.09.2019 16:00:00 25,3 11,8 34,5 16,8 15,9 12 7 29 16 NNE 1028,4 20 60 0,0
14.09.2019 15:00:00 25,1 13,0 38,7 16,7 15,9 15 8 29 16 NE 1028,8 20 60 0,0
14.09.2019 14:00:00 23,8 13,9 44,3 16,7 15,9 13 7 25 13 NE 1029,8 20 60 0,0
14.09.2019 13:00:00 22,4 14,0 35,3 16,7 15,9 10 5 19 11 NNE 1030,6 20 60 0,0
14.09.2019 12:00:00 19,8 13,5 26,9 16,8 15,9 14 7 19 11 NNE 1031,5 19 60 0,0
14.09.2019 11:00:00 17,1 13,0 19,6 16,8 15,9 11 6 19 11 NNE 1031,8 17 56 0,0
14.09.2019 10:00:00 14,0 12,2 13,2 16,9 15,9 10 5 18 10 NE 1032,2 10 53 0,0
14.09.2019 09:00:00 12,2 11,7 9,7 17,0 15,9 8 4 13 7 NNE 1032,3 5 17 0,0
14.09.2019 08:00:00 11,1 10,9 7,9 17,0 15,9 8 4 14 8 NNE 1032,6 4,6 6 0,0
14.09.2019 07:00:00 11,2 10,9 7,6 17,1 15,9 8 4 16 9 NNE 1032,5 6 0 0,0
14.09.2019 06:00:00 11,2 10,7 7,0 17,2 15,9 6 4 11 6 N 1032,2 8 0 0,0
14.09.2019 05:00:00 12,2 11,6 8,8 17,2 15,9 7 4 18 10 NNE 1031,8 11 0 0,0

tt = Température de l'air
td = dewpoint
tt 5cm = Température de l'air 5cm
tt -20cm = Température de l'air -20cm
tt -100cm = Température de l'air -100cm
ff = Vitesse du vent
fx = gusts
dd = Direction du vent
ppp = reduced air pressure
vv = visibility
sd = Ensoleillement
rr = Quantités de précipitations

stations d'obs. à proximité